RH
24 22 20 17 17 18 17 16 13 11 10 12 34 41 54 57 76 74 57 36 28 20 11 13 17 16 18 19 13 15 15 14 14 11 12 12 11 11 10 9 10 10 9 9 9 10 11
25 25 23 22 18 17 19 19 18 15 13 11 10 27 41 48 58 69 79 61 37 31 26 14 17 17 20 22 10 12 14 16 16 13 13 13 12 12 13 11 11 11 12 11 11 11 10
26 26 24 23 21 19 17 17 19 19 16 14 12 12 22 39 53 58 69 84 61 40 35 26 21 20 20 13 12 12 12 14 19 17 15 14 14 13 13 13 12 12 13 12 11 12 11
31 27 27 26 24 22 19 17 16 18 19 18 16 14 13 19 47 53 61 70 86 65 40 37 29 27 24 10 10 13 15 14 16 19 17 15 16 16 16 15 15 14 14 14 10 11 11
39 34 29 30 30 29 21 17 16 15 19 20 20 19 15 15 20 46 62 68 75 88 65 47 42 36 30 14 7 8 15 17 17 19 19 18 16 18 17 17 19 18 17 15 12 10 11
48 47 47 29 29 30 23 18 14 14 15 18 21 23 21 18 17 28 54 63 77 89 86 68 52 43 30 20 9 7 12 18 20 21 22 20 20 19 20 21 23 17 18 15 13 10 12
45 48 43 49 40 27 26 19 15 14 14 15 17 21 26 24 21 19 34 64 77 83 92 71 55 41 41 26 16 11 11 17 20 23 24 22 22 23 18 17 16 16 18 16 14 12 15
53 54 48 47 50 41 28 22 18 15 14 15 15 17 23 31 28 24 26 47 78 73 77 79 69 59 40 44 33 18 17 16 19 24 24 24 21 17 18 18 19 19 20 20 16 14 18
56 62 59 57 54 48 38 29 20 17 15 15 17 16 20 31 36 31 25 33 71 82 89 68 68 64 49 42 49 27 22 17 16 24 22 22 18 17 18 20 20 20 21 19 18 16 18
63 65 61 58 56 48 45 37 30 20 16 15 16 18 20 35 43 33 26 28 61 82 97 76 78 62 61 46 43 34 28 24 23 21 23 25 19 19 19 18 18 19 16 16 18 19 26
68 57 61 62 60 55 46 42 36 27 19 17 16 19 22 34 43 35 32 31 56 80 97 73 77 68 60 56 33 36 33 33 27 26 25 24 21 21 21 15 16 14 16 18 19 22 27
79 66 55 62 65 62 56 42 37 32 26 20 17 20 30 31 39 38 41 43 57 91 96 84 74 62 71 58 42 37 39 34 32 32 28 20 20 19 14 16 16 16 24 25 28 32 38
82 75 66 62 64 60 57 45 36 34 31 25 22 24 34 41 35 47 54 57 76 87 96 84 65 63 67 67 59 46 44 43 40 45 38 32 28 22 18 17 19 21 32 47 50 53 40
83 76 71 70 68 56 47 44 39 36 35 31 31 31 34 39 46 58 71 72 95 52 89 73 71 69 71 63 68 59 48 47 44 33 35 38 39 23 20 19 19 22 28 39 48 53 28
85 81 80 67 60 54 53 47 42 40 39 35 37 34 35 34 49 70 83 83 75 86 64 66 69 83 80 74 69 70 64 50 45 39 34 36 33 23 18 20 19 23 36 20 36 41 49
84 78 68 60 55 52 52 51 49 46 45 45 48 47 33 40 56 84 95 77 61 66 85 83 79 78 91 74 73 76 69 50 43 41 34 33 31 22 22 24 25 25 17 37 43 49 52
68 63 61 56 58 60 55 52 55 56 54 56 60 60 35 45 64 89 92 74 67 69 85 90 90 80 75 77 77 77 64 49 45 42 40 34 36 34 27 27 21 32 36 35 35 44 34
51 49 52 55 59 62 60 60 63 63 61 70 66 68 47 57 76 83 90 72 67 68 80 96 89 93 94 80 73 74 66 52 44 43 48 38 43 44 37 28 23 25 27 30 37 42 42
62 74 81 79 78 77 75 76 70 71 68 71 73 65 66 67 76 79 95 72 75 70 72 81 94 87 78 92 83 71 64 50 54 54 53 48 53 56 46 43 38 33 28 28 37 41 42
62 72 79 84 86 86 77 75 71 68 64 69 77 77 81 76 67 80 94 83 77 64 65 79 95 93 87 98 91 72 64 60 59 58 54 55 55 53 48 38 36 42 37 33 37 50 36
62 67 75 81 79 80 77 68 64 62 65 77 82 78 57 69 68 72 81 86 70 66 75 79 90 97 92 96 98 82 67 69 68 62 60 63 65 58 48 41 39 37 37 38 41 37 45
49 51 62 65 68 70 67 59 55 54 70 77 71 74 67 63 68 77 86 85 77 64 67 79 81 79 90 84 92 94 83 77 68 68 66 63 70 62 56 50 47 51 42 42 43 41 46
41 39 47 58 64 66 63 61 57 57 75 81 76 77 71 67 70 85 82 77 56 65 68 78 80 84 87 81 83 88 93 85 85 78 76 74 77 81 66 61 69 68 44 40 45 46 45
39 35 34 49 57 56 56 56 56 64 71 74 75 77 82 82 72 61 75 81 74 70 57 59 81 95 77 72 88 92 93 96 93 94 89 80 81 83 75 85 97 54 46 42 42 42 42
38 32 31 49 52 54 54 50 53 66 84 85 82 91 86 92 80 84 87 83 86 77 69 70 80 90 96 95 99 98 99 99 95 92 95 97 89 88 95 95 82 67 52 52 53 43 45
34 31 41 50 52 58 56 53 56 68 89 90 94 95 90 89 89 90 87 85 87 77 75 70 83 92 97 99 99 97 98 92 99 98 92 97 98 97 98 98 95 45 58 61 68 70 49
35 40 49 58 62 66 69 72 76 87 92 89 92 98 94 95 93 92 91 85 82 82 68 73 80 90 96 98 98 98 94 97 98 95 98 97 98 98 98 98 91 65 62 69 91 53 52
31 38 54 63 69 68 67 70 82 98 89 88 91 95 94 88 94 93 89 79 73 65 61 57 77 91 98 99 97 98 98 95 98 93 91 93 97 97 99 98 88 68 76 74 60 58 57
29 38 58 69 73 77 78 71 83 99 95 94 94 91 95 95 96 93 88 80 67 63 63 70 77 84 95 97 99 98 98 95 94 96 91 97 85 87 84 78 69 68 69 73 65 60 62